Track RAPIDEYE 1 now! 10-day predictions RAPIDEYE 1 is classified as:
1 33314U 08040C 25199.46175002 .00001656 00000-0 13083-3 0 9993 2 33314 97.4428 236.1322 0024485 239.0234 120.8585 15.01787783915545